THORAD AGENA D DEB, 5153

Orbit data source: Space-Track

THORAD AGENA D DEB, 5153 is space debris in SSO originally from a launch on Wed, 08 Apr 1970 UTC launched from the Air Force Western Test Range (AFWTR). Debris objects in space refer to the collection of defunct objects orbiting the Earth. Examples of debris include non-operational satellites, rocket bodies, and fragments generated from explosions, collisions, or faulty payload assembly.

Loading next visibility...
Identifier
5153, 1970-025JW
Orbit
SSO
Country
Flag of USUS
Related business
Manufacturer
Unknown
Mission
Spacecraft
Bus & Motor
Unknown
Mass
Unknown
Launch date (UTC)
1970-04-08 (56 years ago)
Launch vehicle
Unknown
Launch site
Air Force Western Test Range (AFWTR)
Object type
Payload
Rocket body
Debris
Shape & HBR
Unknown shape, 0.1 m
Radar Cross Section
Small (<0.1 m²)

Expand to show TLE details & history
Last TLE update: 2 days ago

TLE from 2 days ago
0 THORAD AGENA D DEB
1 05153U 70025JW  25340.24984230  .00000701  00000-0  10321-2 0  9991
2 05153  99.9679  87.5410 0032486  12.7707  16.9838 13.57944943743027
Epoch: 2025-12-06T05:59Z
TLE epoch observation values (Epoch: 2025-12-06T05:59:46.374Z)
Latitude
29.41703°
Longitude
-83.34026°
Altitude
1,023.665 km
Speed
7.354 km/s
True Right ascension
05h 27m 31s
True Declination
29° 16' 31"
Sunlit
Object was in full shadow at epoch
Visualization orbit readout
Latitude
Unknown
Longitude
Unknown
Altitude
Unknown
Speed
Unknown
Apparent Right ascension
Unknown
Apparent Declination
Unknown
Sunlit
N/A
Visualization observer readout
Local Sidereal Time
17:21:30
Azimuth
Unknown
Elevation
Unknown
Doppler factor
Unknown
Orbital elements
Apogee altitude
1,064.575 km
Perigee altitude
1,016.375 km
Semi-major axis
7,418.612 km
Eccentricity
0.00325
Inclination
99.9679°
RAAN
87.541°
Arg. of periapsis
12.7707°
True anomaly
17.09296°
Mean anomaly
16.9838°
Eccentric anomaly
17.03834°
Mean motion
3.39672 °/min
Orbital period
105.98 mins
BSTAR
0.0010321
Loading maneuver chart data...
Computing Atmospheric mass density...

Documentation

Showing up to 5 results
|